Regional Weather Roundup
Issued by NWS Jackson, KY

Home | Current Version | Previous Version | Graphics & Text | Print | Product List | Glossary On
Versions: 1 2 3 4 5 6 7 8 9 10 11 12 13 14 15 16 17 18 19 20 21 22 23 24 25 26 27 28 29 30 31 32 33 34 35 36 37 38 39 40 41 42 43 44 45 46 47 48 49 50
000
ASUS43 KJKL 281319
RWRJKL

EAST KENTUCKY HOURLY WEATHER ROUNDUP
NATIONAL WEATHER SERVICE JACKSON KY
800 AM EST SUN DEC 28 2014

NOTE: "FAIR" INDICATES FEW OR NO CLOUDS BELOW 12,000 FEET WITH
NO SIGNIFICANT WEATHER AND/OR OBSTRUCTIONS TO VISIBILITY.

* THESE REPORTS ARE NOT UNDER NWS QUALITY CONTROL AND MAY NOT
  REPORT WEATHER SUCH AS PRECIPITATION AND FOG.

KYZ079-080-083-085-087-088-110-112-115-119-120-281400
...EASTERN KENTUCKY...

CITY           SKY/WX    TMP DP  RH WIND       PRES   REMARKS
JACKSON        LGT RAIN  46  45  96 CALM      30.04F VSB 1/2
LONDON         RAIN      47  43  86 CALM      30.07R FOG
SOMERSET*      LGT RAIN  45  45 100 CALM      30.09R
MONTICELLO*    CLOUDY    48  46  93 NW3       30.11R FOG
MIDDLESBORO*   RAIN      47  47 100 CALM      30.07R
HARLAN APT*    CLOUDY    46  46 100 CALM      30.05S VSB 1/2
BLACK MTN*       N/A     46  46 100 CALM        N/A
PIKEVILLE APT* LGT RAIN  45  45 100 CALM      30.05R VSB 1/4
BIG SANDY*     RAIN      46  46  99 CALM      30.06R
MOREHEAD APT*  LGT RAIN  41  41 100 NW8       30.09R
ASHLAND*       CLOUDY   N/A N/A N/A N9        30.04R
$$

KYZ035-036-041-042-044-050-067-078-099-281400
...CENTRAL KENTUCKY...

CITY           SKY/WX    TMP DP  RH WIND       PRES   REMARKS
MT STERLING*   CLOUDY    39  39 100 N9        30.09R FOG     WCI  33
FLEMING/MASON* CLOUDY    37  37 100 NW6       30.09S FOG     WCI  33
DANVILLE*      CLOUDY    37  37 100 N8        30.13R FOG     WCI  31
RICHMOND*      CLOUDY    41  39  93 NW10      30.07S
LEXINGTON      CLOUDY    38  37  97 N8        30.10R WCI  32
FRANKFORT      CLOUDY    37  34  89 N5        30.10R WCI  33
$$

KYZ091>093-OHZ055-061-077-WVZ005-015-034-035-042-281400
...SOUTHERN OHIO/WEST VIRGINIA...

CITY           SKY/WX    TMP DP  RH WIND       PRES   REMARKS
COVINGTON      CLOUDY    36  31  82 N9        30.10F WCI  29
COLUMBUS       CLOUDY    35  35 100 NW8       30.07F FOG     WCI  29
DAYTON         CLOUDY    34  29  82 NW12      30.12R WCI  25
WILMINGTON     CLOUDY    34  32  92 N9        30.09S FOG     WCI  27
HUNTINGTON     CLOUDY    47  47 100 S3        30.04R
CHARLESTON     CLOUDY    48  46  93 S6        30.03F
PINEVILLE*     RAIN      46  46 100 MISG      30.10S
BECKLEY        LGT RAIN  44  42  93 CALM      30.04R FOG
BLUEFIELD      FOG       47  44  90 SW5       30.04R VSB 1
$$

VAZ002-007-008-TNZ017-027-036-066-071-281400
...SOUTHWEST VIRGINIA/EAST TENNESSEE...

CITY           SKY/WX    TMP DP  RH WIND       PRES   REMARKS
WISE*          DRIZZLE   46  46 100 CALM      30.05R
JONESVILLE*    LGT RAIN  45  45 100 CALM      30.08R
ABINGDON*      CLOUDY    48  38  68 CALM      30.06S
BRISTOL        CLOUDY    47  41  80 CALM      30.06F
KNOXVILLE      CLOUDY    48  44  86 CALM      30.05S
OAK RIDGE      LGT RAIN  52  50  93 CALM      30.08R FOG
CROSSVILLE     LGT RAIN  50  47  89 W5        30.08R FOG
NASHVILLE      LGT RAIN  41  40  96 N9        30.15R FOG
$$

...KEY TO REMARKS...
VSB - VISIBILITY IN MILES
WCI - WIND CHILL INDEX
HX  - HEAT INDEX

$$


USA.gov is the U.S. government's official web portal to all federal, state and local government web resources and services.